Regional Weather Roundup
Issued by NWS

Home | Current Version | Previous Version | Text Only | Print | Product List | Glossary Off
Versions: 1 2 3 4 5 6 7 8 9 10 11 12 13 14 15 16 17 18 19 20 21 22 23 24 25 26 27 28 29 30 31 32 33 34 35 36 37 38 39 40 41 42 43 44 45 46 47 48 49 50

717
ASUS43 KMKX 260611
RWRWI

WISCONSIN REGIONAL WEATHER ROUNDUP
NATIONAL WEATHER SERVICE MILWAUKEE/SULLIVAN WI
100 AM CDT THU MAY 26 2016

NOTE: "FAIR" INDICATES FEW OR NO CLOUDS BELOW 12,000 FEET WITH NO
SIGNIFICANT WEATHER AND/OR OBSTRUCTIONS TO VISIBILITY.

WIZ001-002-006>008-014>016-023>028-260700-
NORTHWEST WISCONSIN

CITY           SKY/WX    TMP DP  RH WIND       PRES   REMARKS
SUPERIOR ARPT  CLOUDY    44  43  97 E7        29.87F
6HR MIN TEMP:  43; 6HR MAX TEMP:  44;

ASHLAND        CLOUDY    48  48 100 CALM      29.85F FOG
6HR MIN TEMP:  47; 6HR MAX TEMP:  52; 6HR PCP:  0.30;

HAYWARD        FOG       51  50  96 NE5       29.84F VSB 3/4
6HR MIN TEMP:  50; 6HR MAX TEMP:  55; 6HR PCP:  0.15;

SIREN          FOG       58  57  97 SE3       29.83S VSB 3/4
6HR MIN TEMP:  58; 6HR MAX TEMP:  60;

CUMBERLAND     FOG       55  55 100 CALM      29.82F VSB 1/2
RICE LAKE      FOG       57  56  95 NE5       29.84F VSB<1/4
6HR MIN TEMP:  57; 6HR MAX TEMP:  64;

CHETEK         PTCLDY    58  58 100 E3        29.83F
6HR MIN TEMP:  56; 6HR MAX TEMP:  64; 6HR PCP:  0.03;

LADYSMITH      FOG       59  58  97 CALM      29.86F VSB 1/4
6HR MIN TEMP:  58; 6HR MAX TEMP:  66; 6HR PCP:  0.43;

EAU CLAIRE     FOG       58  58 100 CALM      29.83F VSB 1/2
6HR MIN TEMP:  57; 6HR MAX TEMP:  67;

MENOMONIE      FOG       61  61  99 E3        29.83F VSB 1/2
6HR MIN TEMP:  60; 6HR MAX TEMP:  69;

NEW RICHMOND   CLOUDY    63  63 100 SE6       29.82F FOG
6HR MIN TEMP:  63; 6HR MAX TEMP:  71;

OSCEOLA        CLOUDY    63  63 100 SE10      29.83F FOG
6HR MIN TEMP:  63; 6HR MAX TEMP:  70;

$$

WIZ003>005-009-010-017-018-260700-
NORTH CENTRAL WISCONSIN

CITY           SKY/WX    TMP DP  RH WIND       PRES   REMARKS
MANITOWISH WTR NOT AVBL
ARBOR VITAE    LGT RAIN  60  58  95 CALM      29.83S
6HR MIN TEMP:  60; 6HR MAX TEMP:  63; 6HR PCP:  1.46;

WOODRUFF       LGT RAIN  60  58  95 CALM      29.83S
6HR MIN TEMP:  60; 6HR MAX TEMP:  63; 6HR PCP:  1.46;

RHINELANDER    CLOUDY    61  59  93 SW9       29.85F
6HR MIN TEMP:  59; 6HR MAX TEMP:  65; 6HR PCP:  0.73;

EAGLE RIVER    DRIZZLE   59  58  99 S6        29.83F
LAND O LAKES   DRIZZLE   59  58  97 CALM      29.84F
6HR MIN TEMP:  59; 6HR MAX TEMP:  64; 6HR PCP:  0.94;

PHILLIPS       CLOUDY    61  61 100 S3        29.83F
6HR MIN TEMP:  60; 6HR MAX TEMP:  64; 6HR PCP:  0.64;

TOMAHAWK       CLOUDY    61  60  95 CALM      29.85S
6HR MIN TEMP:  60; 6HR MAX TEMP:  62;

MEDFORD        CLOUDY    61  61 100 SW6       29.86S
6HR MIN TEMP:  61; 6HR MAX TEMP:  63; 6HR PCP:  0.53;

MERRILL        CLOUDY    63  63 100 SW6       29.86F FOG
$$

WIZ029-030-035-036-043>047-260700-
CENTRAL WISCONSIN

CITY           SKY/WX    TMP DP  RH WIND       PRES   REMARKS
WAUSAU         CLOUDY    64  50  60 S7        29.85S HAZE
6HR MIN TEMP:  63; 6HR MAX TEMP:  65; 6HR PCP:  0.58;

MOSINEE        CLOUDY    61  61 100 S6        29.88S FOG
MARSHFIELD     FOG       63  61  93 SW7       29.87S VSB 1/2
6HR MIN TEMP:  63; 6HR MAX TEMP:  66; 6HR PCP:  0.04;

STEVENS POINT  CLOUDY    58  58 100 CALM      29.87F FOG
6HR MIN TEMP:  57; 6HR MAX TEMP:  63; 6HR PCP:  0.04;

WAUPACA        FOG       62  61  97 CALM      29.88S VSB 1
6HR MIN TEMP:  62; 6HR MAX TEMP:  66; 6HR PCP:  0.01;

WAUTOMA        FOG       57  57 100 CALM      29.88F VSB 1/4
WISC RAPIDS    MOCLDY    61  58  90 SW6       29.88S FOG
6HR MIN TEMP:  60; 6HR MAX TEMP:  67; 6HR PCP:  0.24;

CAMP DOUGLAS   FOG       63 N/A N/A CALM      29.87S VSB 1/4
6HR MIN TEMP:  61; 6HR MAX TEMP:  67;

$$

WIZ011>013-019>022-031-037>040-048>050-260700-
NORTHEAST WISCONSIN

CITY           SKY/WX    TMP DP  RH WIND       PRES   REMARKS
ANTIGO         FOG       59  59 100 S9        29.86F VSB 1/2
6HR MIN TEMP:  57; 6HR MAX TEMP:  61; 6HR PCP:  0.16;

SHAWANO        CLOUDY    61  60  95 SW3       29.87S FOG
6HR MIN TEMP:  60; 6HR MAX TEMP:  64; 6HR PCP:  0.30;

OCONTO         PTCLDY   N/A N/A N/A S3        29.85S
                                      6HR PCP:  0.48;

STURGEON BAY   NOT AVBL
GREEN BAY      CLEAR     60  58  92 S7        29.86F FOG
6HR MIN TEMP:  60; 6HR MAX TEMP:  62;

MANITOWOC      PTCLDY    57  56  96 S9        29.89F FOG
6HR MIN TEMP:  54; 6HR MAX TEMP:  57; 6HR PCP:  0.23;

APPLETON       CLEAR     59  59 100 S5        29.86S FOG
CLINTONVILLE   CLOUDY    59  59 100 S5        29.86F FOG
OSHKOSH        CLEAR     61  60  97 S7        29.87S FOG
6HR MIN TEMP:  58; 6HR MAX TEMP:  63; 6HR PCP:  0.34;

$$

WIZ032>034-041-042-053>061-260700-
SOUTHWEST WISCONSIN

CITY           SKY/WX    TMP DP  RH WIND       PRES   REMARKS
LA CROSSE      MOCLDY    66  64  93 SE5       29.84F
6HR MIN TEMP:  65; 6HR MAX TEMP:  78;

SPARTA         CLEAR     58  58 100 CALM      29.87S
6HR MIN TEMP:  58; 6HR MAX TEMP:  76;

VIROQUA        CLOUDY    67  62  83 S6        29.88F
6HR MIN TEMP:  67; 6HR MAX TEMP:  77;

BOSCOBEL       FOG       62  61  96 CALM      29.87S VSB 1/2
6HR MIN TEMP:  61; 6HR MAX TEMP:  82;

PRAIRIE DU CHI CLEAR     64  60  85 CALM      29.86S
6HR MIN TEMP:  64; 6HR MAX TEMP:  81;

PLATTEVILLE    PTCLDY    70  59  69 CALM      29.89F
6HR MIN TEMP:  69; 6HR MAX TEMP:  81;

$$

WIZ056-057-062-063-064-067-068-260700-
SOUTH CENTRAL WISCONSIN

CITY           SKY/WX    TMP DP  RH WIND       PRES   REMARKS
REEDSBURG      FOG       64  64 100 CALM      29.87S VSB 1/4
6HR MIN TEMP:  63; 6HR MAX TEMP:  72;

BARABOO/DELLS  FOG       63  62  95 CALM      29.88S VSB 1/4
6HR MIN TEMP:  63; 6HR MAX TEMP:  76;

LONE ROCK      CLEAR     63  59  87 CALM      29.88S
6HR MIN TEMP:  62; 6HR MAX TEMP:  83;

MINERAL POINT  PTCLDY    72  57  60 SW5       29.90S
MADISON        CLEAR     67  63  87 S8        29.88S
6HR MIN TEMP:  67; 6HR MAX TEMP:  78;

MIDDLETON      CLEAR     68  63  83 SW5       29.89S
6HR MIN TEMP:  68; 6HR MAX TEMP:  82;

WATERTOWN      CLEAR     64  64 100 S5        29.89S
6HR MIN TEMP:  64; 6HR MAX TEMP:  69; 6HR PCP:  0.01;

MONROE         MOCLDY    64  61  88 S6        29.90S
JANESVILLE     CLEAR     66  64  94 SE5       29.90S
$$

WIZ051-052-058>065-066-070>072-260700-
SOUTHEAST WISCONSIN

CITY           SKY/WX    TMP DP  RH WIND       PRES   REMARKS
MILWAUKEE      PTCLDY    63  61  93 S7        29.90F
6HR MIN TEMP:  53; 6HR MAX TEMP:  63; 6HR PCP:  0.04;

WAUKESHA       PTCLDY    61  61 100 S6        29.91F FOG
MILWAUKEE/TIMM CLEAR     59  55  88 CALM      29.91S FOG
RACINE         PTCLDY    62  59  90 S3        29.92F
6HR MIN TEMP:  56; 6HR MAX TEMP:  64; 6HR PCP:  0.02;

BURLINGTON     CLEAR     62  62 100 S3        29.91F
6HR MIN TEMP:  61; 6HR MAX TEMP:  70;

KENOSHA        PTCLDY    66  63  90 S9        29.91F
6HR MIN TEMP:  64; 6HR MAX TEMP:  68; 6HR PCP:  0.06;

FOND DU LAC    PTCLDY    63  61  93 S9        29.88F FOG
6HR MIN TEMP:  61; 6HR MAX TEMP:  67; 6HR PCP:  0.28;

SHEBOYGAN      CLOUDY    56  54  93 S5        29.90F FOG
6HR MIN TEMP:  52; 6HR MAX TEMP:  57; 6HR PCP:  0.31;

WEST BEND      CLOUDY    59  57  94 CALM      29.90F FOG
JUNEAU         FOG       61  60  98 E3        29.91R VSB 3/4
6HR MIN TEMP:  60; 6HR MAX TEMP:  69; 6HR PCP:  0.12;

$$

LSZ147-162-260700-
LAKE SUPERIOR

STATION/POSITION TIME  TEMP    WIND        PRES    WAVE
                       AIR SEA DIR/SP/G            HT/PER
                 (UTC) (F)     (DEG/KT/KT) (MB)    (FT/S)
W MID LAKE BUOY  0550   41 38  100/ 10/ 12 1011.4F   2/ 5
DEVILS ISLAND    0600   42      30/  6/  7 1011.4F
PORT WING        0420   43      70/  3/  6 1011.9
SAXON HARBOR     0500   47     300/  7/  7 1010.5R
$$

LMZ867-665-643>646-260700-
LAKE MICHIGAN

STATION/POSITION TIME  TEMP    WIND        PRES    WAVE
                       AIR SEA DIR/SP/G            HT/PER
                 (UTC) (F)     (DEG/KT/KT) (MB)    (FT/S)
CHAMBERS ISLAND  0500   58     140/  1/  3 1011.9F
N MID LAKE BUOY  0550   53 45  150/ 10/ 12 1011.9F   1
NORTHPORT PIER   0500   53     150/  5/  8 1012.2F
SISTER BAY       0519   57     150/  9/ 1C1F1C2F2C3F3C4F4C5F5C6F6C7F7C8M1C9M2Ca!



USA.gov is the U.S. government's official web portal to all federal, state and local government web resources and services.